PulseSat

PulseSat

MOLNIYA 1-80

Last updated on Feb. 17, 2019, 3:06 a.m. UTC

1 21118U 91012A   19046.55567675  .00000306  00000-0  12705+0 0  9995
2 21118  63.5871 112.7570 6807591 289.2952  12.3848  2.05238663206000
UTC
Height (km)
Latitude
Longitude
Inclination
Orbital Period

Next 30 passes for location: Hong Kong

Rise time Rise Azimuth (degrees) Set time Set Azimuth (degrees) Duration Max altitude (degrees)

No matching passes for this satellites

PulseSat

PulseSat is the new satellites software and hardware trackering solution by Pulsely.
Satellite Two Line Element Set source: US Air Force Space Command

Download PulseSat for iOS
© 2017 Pulsely Limited